User: anonymous   Login
Location: Unspecified
(0.0000°N, 0.0000°E)
Time: 23:19:11
(UTC+00:00)
Language:

Tiungsat 1 - Orbit

View from above orbital plane
View from above orbital plane
View from above satellite
View from above satellite

Ground track
Ground track

The orbit data is extracted from the following two-line orbital elements,

1 26548U 00057D   24176.60994248  .00002654  00000-0  25581-3 0  9990
2 26548  64.5499 257.3203 0029872 228.8503 131.0031 14.94809049287938
Epoch (UTC): 24 June 2024 14:38:19
Eccentricity: 0.0029872
inclination: 64.5499°
perigee height: 562 km
apogee height: 604 km
right ascension of ascending node: 257.3203°
argument of perigee: 228.8503°
revolutions per day: 14.94809049
mean anomaly at epoch: 131.0031°
orbit number at epoch: 28793

The dashed part of the orbit path shows where the satellite is in the earth's shadow,  

DLR